Home   Weather   Brilon   Past weeks

Flag for Germany Past Weather in Brilon, North Rhine-Westphalia, Germany — Yesterday and Last 2 Weeks

Now
54 °F

Clear.


Feels Like: 53 °F
Forecast: 54 / 70 °F
Wind: 5 mph from Southeast

Location: Paderborn / Lippstadt

Current Time: Aug 31, 2016 at 4:32:20 AM

Latest Report: Aug 31, 2016 at 3:50 AM


Visibility: 10 mi

Pressure: 30.21 "Hg

Humidity: 72%

Dew Point: 45 °F

Location of BrilonLocation

Past Weather in Brilon — Graph

°F

Brilon Temperature Yesterday

Maximum temperature yesterday: 72 °F (at 2:20 PM)
Minimum temperature yesterday: 50 °F (at 6:20 AM)
Average temperature yesterday: 62 °F

High & Low Weather Summary for the Past Weeks

 TemperatureHumidityPressure
High91 °F (Aug 25, 4:20 PM)100% (Aug 27, 5:20 AM)30.36 "Hg (Aug 27, 5:20 AM)
Low46 °F (Aug 16, 6:50 AM)17% (Aug 25, 4:50 PM)29.80 "Hg (Aug 18, 3:50 PM)
Average68 °F63%30.06 "Hg
* Reported Aug 16 3:20 AM — Aug 31 3:20 AM, Brilon, Weather by CustomWeather, © 2016

Note: Actual official high and low records may vary slightly from our data, if they occured in-between our weather recording intervals... More about our weather records

Advertising

Brilon Weather History for the Previous 24 Hours

Scroll right to see more
 ConditionsComfort  
Time TempWeatherWind HumidityBarometerVisibility
3:20 AM
Wed, Aug 31
54 °FClear.5 mph72%30.21 "Hg10 mi
2:50 AM55 °FClear.5 mph67%30.24 "Hg10 mi
2:20 AM54 °FClear.5 mph77%30.24 "Hg10 mi
1:50 AM54 °FClear.6 mph77%30.24 "Hg10 mi
1:20 AM54 °FClear.7 mph77%30.24 "Hg10 mi
12:50 AM54 °FClear.6 mph77%30.24 "Hg10 mi
12:20 AM57 °FClear.5 mph67%30.24 "Hg10 mi
11:50 PM
Tue, Aug 30
57 °FClear.6 mph72%30.24 "Hg10 mi
11:20 PM57 °FClear.6 mph72%30.24 "Hg10 mi
10:50 PM57 °FClear.6 mph72%30.24 "Hg10 mi
10:20 PM61 °FClear.6 mph63%30.24 "Hg10 mi
9:50 PM61 °FClear.6 mph68%30.24 "Hg10 mi
9:20 PM61 °FClear.6 mph63%30.27 "Hg10 mi
8:50 PM63 °FSunny.2 mph64%30.27 "Hg10 mi
8:20 PM64 °FSunny.1 mph56%30.27 "Hg10 mi
7:50 PM68 °FSunny.2 mph49%30.24 "Hg10 mi
7:20 PM70 °FPassing clouds.3 mph46%30.24 "HgN/A
6:50 PM72 °FPassing clouds.3 mph44%30.24 "HgN/A
6:20 PM72 °FPassing clouds.5 mph44%30.27 "HgN/A
5:50 PM72 °FPassing clouds.5 mph41%30.27 "HgN/A
5:20 PM72 °FSunny.5 mph41%30.27 "Hg10 mi
4:50 PM72 °FSunny.7 mph41%30.27 "Hg10 mi
4:20 PM72 °FPassing clouds.6 mph38%30.27 "HgN/A
3:50 PM72 °FPassing clouds.6 mph41%30.27 "HgN/A
3:20 PM72 °FPassing clouds.7 mph41%30.30 "HgN/A
2:50 PM70 °FPassing clouds.5 mph43%30.30 "HgN/A
2:20 PM72 °FPassing clouds.3 mph47%30.30 "HgN/A
1:50 PM70 °FPassing clouds.3 mph43%30.30 "HgN/A
1:20 PM68 °FPassing clouds.2 mph46%30.33 "HgN/A
12:50 PM68 °FPassing clouds.2 mph49%30.33 "HgN/A
12:20 PM68 °FPassing clouds.5 mph53%30.33 "HgN/A
11:50 AM66 °FSunny.2 mph52%30.33 "Hg10 mi
11:20 AM66 °FPassing clouds.2 mph56%30.33 "HgN/A
10:50 AM64 °FPassing clouds.2 mph60%30.33 "HgN/A
10:20 AM63 °FPassing clouds.2 mph68%30.33 "HgN/A
9:50 AM61 °FPassing clouds.1 mph77%30.33 "HgN/A
9:20 AM59 °FSunny.2 mph82%30.30 "Hg10 mi
8:50 AM57 °FSunny.1 mph88%30.30 "Hg10 mi
8:20 AM55 °FSunny.1 mph88%30.30 "Hg10 mi
7:50 AM52 °FSunny.1 mph94%30.30 "Hg10 mi
7:20 AM50 °FClear.1 mph94%30.30 "Hg10 mi
6:50 AM50 °FClear.1 mph94%30.27 "Hg10 mi
6:20 AM50 °FClear.1 mph94%30.27 "Hg10 mi
5:50 AM52 °FClear.2 mph94%30.27 "Hg10 mi
5:20 AM52 °FClear.5 mph94%30.27 "Hg10 mi
4:50 AM52 °FPassing clouds.2 mph94%30.27 "HgN/A
4:20 AM54 °FPassing clouds.3 mph94%30.27 "HgN/A
Weather by CustomWeather, © 2016

See weather overviewHow to use our weather pages